Lexington Weather

Lexington, Massachusetts, USA

47°F
12/8/2022 3:34pm 
  • Lexington Conditions: Clear
  • Temperature: 46.9°F / 8.3°CColder 2.0°F than last hour.
  • Dew Point: 34.5°FDecreased 1.1°Fsince last hour.
  • Relative Humidity: 62%Increased 2.0% since last hour.
  • Wind: Wind from N N 4 mph, 10-min avg: 3 mph, gust: 12 mph
  • Barometer: 30.09 inRising 0.02  inHg/hr Rising Slowly
  • Visibility: 10 miles
  • Rain Today: 0.00 in
  •   

Regional Weather Roundup
for Boston, MA

        
000
ASUS41 KBOX 050510
RWRBOX

REGIONAL WEATHER ROUNDUP
NATIONAL WEATHER SERVICE BOSTON/NORTON MA
1200 AM EST MON DEC 05 2022

NOTE:  "FAIR" INDICATES FEW OR NO CLOUDS BELOW 12,000 FEET WITH NO 
SIGNIFICANT WEATHER AND/OR OBSTRUCTIONS TO VISIBILITY.

MAZALL-050600-
EASTERN MASSACHUSETTS
  
CITY           SKY/WX    TMP DP  RH WIND       PRES   REMARKS
BOSTON         CLEAR     33  22  63 SW6       30.20S WCI  28          
BEVERLY        CLEAR     24  19  81 CALM      30.18S                  
LAWRENCE       CLEAR     27  19  72 CALM      30.20S                  
BEDFORD        CLEAR     26  20  77 CALM      30.18S                  
NORWOOD        CLEAR     24  21  88 CALM      30.20S                  
MARSHFIELD       N/A     27  23  86 CALM      30.20F                  
PLYMOUTH       CLEAR     25  22  88 CALM      30.20R                  
TAUNTON          N/A    N/A N/A N/A MISG      30.20S                  
NEW BEDFORD    CLEAR     25  24  96 CALM      30.20R                  
$$

MAZALL-050600-
CAPE COD AND THE ISLANDS
  
CITY           SKY/WX    TMP DP  RH WIND       PRES   REMARKS
FALMOUTH       CLEAR     25  23  93 CALM      30.20S                  
HYANNIS        CLEAR     24  21  88 CALM      30.19S                  
CHATHAM        CLEAR     29  24  82 CALM      30.20F                  
PROVINCETOWN   CLEAR     25  21  85 CALM      30.21R                  
NANTUCKET      CLEAR     31  24  75 CALM      30.20S                  
MARTHAS VNYRD  CLEAR     22  19  89 CALM      30.20S                  
$$
 
MAZALL-050600-
CENTRAL AND WESTERN MASSACHUSETTS
  
CITY           SKY/WX    TMP DP  RH WIND       PRES   REMARKS
WORCESTER      CLEAR     30  18  60 W8        30.14S WCI  22          
FITCHBURG      CLEAR     24  18  77 CALM      30.19R                  
ORANGE         CLEAR     22  19  89 CALM      30.17R                  
SPRINGFIELD    CLEAR     21  20  95 CALM      30.17R                  
WESTFIELD      CLEAR     21  19  92 CALM      30.18R                  
NORTH ADAMS    CLEAR     26  20  77 E7        30.15S WCI  18          
PITTSFIELD     CLEAR     22  19  89 CALM      30.11F                  
$$
 
RIZALL-050600-
RHODE ISLAND
  
CITY           SKY/WX    TMP DP  RH WIND       PRES   REMARKS
PROVIDENCE     PTCLDY    27  22  81 W3        30.21S                  
NEWPORT        CLEAR     25  22  88 CALM      30.20R                  
BLOCK ISLAND   CLEAR     29  22  75 CALM      30.21S                  
SMITHFIELD     CLEAR     27  23  85 CALM      30.18S                  
WESTERLY       CLEAR     26  23  88 CALM      30.21S                  
$$
 
CTZALL-050600-
CONNECTICUT
  
CITY           SKY/WX    TMP DP  RH WIND       PRES   REMARKS
BRADLEY INTL   PTCLDY    25  21  85 CALM      30.19R                  
HARTFORD       CLEAR     28  24  85 CALM      30.20S                  
BRIDGEPORT     CLEAR     29  23  78 CALM      30.19F                  
DANBURY        CLEAR     26  21  81 CALM      30.19S                  
GROTON         CLEAR     28  23  81 NE3       30.20S                  
NEW HAVEN      CLEAR     27  23  85 CALM      30.18F                  
CHESTER        FAIR      28  21  74 CALM      30.18S                  
MERIDEN        CLEAR     26  21  81 CALM      30.19F                  
WILLIMANTIC    CLEAR     24  22  91 CALM      30.20S                  
OXFORD         CLEAR     29  22  75 CALM      30.17S                  
$$

MEZ002-015-021-024-NHZ003-005-008-011-012-014-VTZ005-008-050600-
NORTHERN NEW ENGLAND
  
CITY           SKY/WX    TMP DP  RH WIND       PRES   REMARKS
PORTLAND ME    CLEAR     24  19  81 CALM      30.19R                  
BANGOR ME      PTCLDY    25  17  72 S3        30.18S                  
CONCORD NH     CLEAR     20  18  92 CALM      30.17S                  
MANCHESTER NH  CLEAR     25  20  81 CALM      30.17R                  
NASHUA NH      CLEAR     22  22 100 CALM      30.19S                  
PORTSMOUTH NH  PTCLDY    26  20  79 CALM      30.18S                  
JAFFREY NH     CLEAR     24  20  84 S3        30.13S                  
KEENE NH       CLEAR     21  20  96 CALM        N/A                   
BURLINGTON VT  CLOUDY    33  20  58 S14       30.07S WCI  23          
MT. WASHINGTON FOG        7   1  78 W38         N/A  VSB 1/8 WCI -19  
$$

NYZ052-076-050600-
EASTERN NEW YORK
  
CITY           SKY/WX    TMP DP  RH WIND       PRES   REMARKS
ALBANY         MOCLDY    29  20  69 SE3       30.14S                  
NEW YORK CITY  CLEAR     40  21  46 CALM      30.19F                  
$$
 
ANZALL-050600-
MARINE OBSERVATIONS
  
STATION/POSITION TIME  TEMP    WIND        PRES    VSBY  WAVE
                       AIR SEA DIR/SP/G                  HT/PER
                 (UTC) (F)     (DEG/KT/KT) (MB)    (MI)  (FT/S)
BOSTON BUOY      0450      51  260/  4/  8 1023.2R         2/11
BUZZARDS BAY     0400   40     340/  3/  4 1023.3R
NANTUCKET SOUND  0450   42 49   CALM  /  4 1022.4F         1
MASS BAY-STELLWA 0304   40 50  260/  4/  6 1021.9R  1 7/8  2/11
ISLE OF SHOALS   0400   38     240/  3/  4 1021.6F
S OF BLOCK IS    0456      55                N/A           2/11
$$

......................KEY.........................
  SKY/WX - SKY CONDITION/PRESENT WEATHER
  TMP    - TEMPERATURE IN FAHRENHEIT
  DWPT   - DEWPOINT IN FAHRENHEIT
  RH     - RELATIVE HUMIDITY IN PERCENT
  WIND   - DIRECTION AND SPEED IN MPH
  PRES   - MEAN SEA LEVEL PRESSURE IN INCHES OF HG
  WCI    - WIND CHILL INDEX
  VSB    - VISIBILITY IN MILES
  HX     - HEAT INDEX
  TC     - TEMPERATURE IN CELSIUS
  VRB    - VARIABLE WIND DIRECTION
  N/A    - NOT AVAILABLE
  
      

Other recent Regional Weather Roundups

Thu Dec 8, 3:10pm

Thu Dec 8, 2:10pm

Thu Dec 8, 1:10pm

Thu Dec 8, 12:10pm

Thu Dec 8, 11:10am

Thu Dec 8, 10:10am

Thu Dec 8, 9:10am

Thu Dec 8, 8:10am

Thu Dec 8, 7:10am

Thu Dec 8, 6:10am

Thu Dec 8, 5:10am

Thu Dec 8, 4:10am

Thu Dec 8, 3:10am

Thu Dec 8, 2:10am

Thu Dec 8, 1:10am

Thu Dec 8, 12:10am

Wed Dec 7, 11:10pm

Wed Dec 7, 10:10pm

Wed Dec 7, 9:10pm

Wed Dec 7, 8:10pm

Wed Dec 7, 7:10pm

Wed Dec 7, 6:10pm

Wed Dec 7, 5:10pm

Wed Dec 7, 4:10pm

Wed Dec 7, 3:10pm

Wed Dec 7, 2:10pm

Wed Dec 7, 1:10pm

Wed Dec 7, 12:10pm

Wed Dec 7, 11:10am

Wed Dec 7, 10:10am

Wed Dec 7, 9:10am

Wed Dec 7, 8:10am

Wed Dec 7, 7:10am

Wed Dec 7, 6:10am

Wed Dec 7, 5:10am

Wed Dec 7, 4:10am

Wed Dec 7, 3:10am

Wed Dec 7, 2:10am

Wed Dec 7, 1:10am

Wed Dec 7, 12:10am

Tue Dec 6, 11:10pm

Tue Dec 6, 10:10pm

Tue Dec 6, 9:10pm

Tue Dec 6, 8:10pm

Tue Dec 6, 7:10pm

Tue Dec 6, 6:10pm

Tue Dec 6, 5:10pm

Tue Dec 6, 4:10pm

Tue Dec 6, 3:10pm

Tue Dec 6, 2:10pm

Tue Dec 6, 1:10pm

Tue Dec 6, 12:10pm

Tue Dec 6, 11:10am

Tue Dec 6, 10:10am

Tue Dec 6, 9:10am

Tue Dec 6, 8:10am

Tue Dec 6, 7:10am

Tue Dec 6, 6:10am

Tue Dec 6, 5:10am

Tue Dec 6, 4:10am

Tue Dec 6, 3:10am

Tue Dec 6, 2:10am

Tue Dec 6, 1:10am

Tue Dec 6, 12:10am

Mon Dec 5, 11:10pm

Mon Dec 5, 10:10pm

Mon Dec 5, 9:10pm

Mon Dec 5, 8:10pm

Mon Dec 5, 7:10pm

Mon Dec 5, 6:10pm

Mon Dec 5, 5:10pm

Mon Dec 5, 4:10pm

Mon Dec 5, 3:10pm

Mon Dec 5, 2:10pm

Mon Dec 5, 1:10pm

Mon Dec 5, 12:10pm

Mon Dec 5, 11:10am

Mon Dec 5, 10:10am

Mon Dec 5, 9:10am

Mon Dec 5, 8:10am

Mon Dec 5, 7:10am

Mon Dec 5, 6:10am

Mon Dec 5, 5:10am

Mon Dec 5, 4:10am

Mon Dec 5, 3:10am

Mon Dec 5, 2:10am

Mon Dec 5, 1:10am

Sun Dec 4, 11:10pm

Sun Dec 4, 10:10pm

Sun Dec 4, 9:10pm

Sun Dec 4, 8:10pm

Sun Dec 4, 7:10pm

Sun Dec 4, 6:10pm

Sun Dec 4, 5:10pm

Sun Dec 4, 4:10pm

Sun Dec 4, 3:10pm

Sun Dec 4, 2:10pm

Sun Dec 4, 1:10pm

Sun Dec 4, 12:10pm

Sun Dec 4, 11:10am

Sun Dec 4, 10:10am

Sun Dec 4, 9:10am

Sun Dec 4, 8:10am

Sun Dec 4, 7:10am

Sun Dec 4, 6:10am

Sun Dec 4, 5:10am

Sun Dec 4, 4:10am

Sun Dec 4, 3:10am

Sun Dec 4, 2:10am

Sun Dec 4, 1:10am

Sun Dec 4, 12:10am

Sat Dec 3, 11:10pm

Sat Dec 3, 10:10pm

Sat Dec 3, 9:10pm

Sat Dec 3, 8:10pm

Sat Dec 3, 7:10pm

Sat Dec 3, 6:10pm

Sat Dec 3, 5:10pm

Sat Dec 3, 4:10pm

Sat Dec 3, 3:10pm

Sat Dec 3, 2:10pm

Sat Dec 3, 1:10pm

Sat Dec 3, 12:10pm

Sat Dec 3, 11:10am

Sat Dec 3, 10:10am

Sat Dec 3, 9:10am

Sat Dec 3, 8:10am

Sat Dec 3, 7:10am

Sat Dec 3, 6:10am

Sat Dec 3, 5:10am

Sat Dec 3, 4:10am

Sat Dec 3, 3:10am

Sat Dec 3, 2:10am

Sat Dec 3, 1:10am

Sat Dec 3, 12:10am

Fri Dec 2, 11:10pm

Fri Dec 2, 10:10pm

Fri Dec 2, 9:10pm

Fri Dec 2, 8:10pm

Fri Dec 2, 7:10pm

Fri Dec 2, 6:10pm

Fri Dec 2, 5:10pm

Fri Dec 2, 4:10pm

Fri Dec 2, 3:10pm

Fri Dec 2, 2:10pm

Fri Dec 2, 1:10pm

Fri Dec 2, 12:10pm

Fri Dec 2, 11:10am

Fri Dec 2, 10:10am

Fri Dec 2, 9:10am

Fri Dec 2, 8:10am

Fri Dec 2, 7:10am

Fri Dec 2, 6:10am

Fri Dec 2, 5:10am

Fri Dec 2, 4:10am

Fri Dec 2, 3:10am

Fri Dec 2, 2:10am

Fri Dec 2, 1:10am

Fri Dec 2, 12:10am

Thu Dec 1, 11:10pm

Thu Dec 1, 10:10pm

Thu Dec 1, 9:10pm

Thu Dec 1, 8:10pm

Thu Dec 1, 7:10pm

Thu Dec 1, 6:10pm

Thu Dec 1, 5:10pm

Thu Dec 1, 4:10pm

Meta data:

ID: a99988d0-893f-491f-8e66-c449a4c3112a
Link: https://api.weather.gov/products/a99988d0-893f-491f-8e66-c449a4c3112a